Change the Weather History Date:

Friday, November 29, 2013

  Actual Average Record
Temperature  
Mean Temperature 17 °F -  
Max Temperature 25 °F 45 °F 71 °F (1990)
Min Temperature 7 °F 29 °F 7 °F (2013)
Degree Days  
Heating Degree Days 48    
Moisture  
Dew Point 15 °F    
Average Humidity 84    
Maximum Humidity 100    
Minimum Humidity 58    
Precipitation  
Precipitation 0.00 in - - ()
Sea Level Pressure  
Sea Level Pressure 30.58 in    
Wind  
Wind Speed 2 mph (North)    
Max Wind Speed 10 mph    
Max Gust Speed -    
Visibility 7 miles    
Events Snow    
Averages and records for this station are not official NWS values.
T = Trace of Precipitation, MM = Missing Value Source: NWS Daily Summary

Daily Weather History Graph

Daily Weather History Graph

Search for Another Location

Airport or City:

Trip Planner

Search our weather history database for the weather conditions in past years. The results will help you decide how hot, cold, wet, or windy it might be!

Date:

Astronomy

Nov. 29, 2013 Rise Set
Actual Time 7:13 AM EST 4:34 PM EST
Civil Twilight 6:42 AM EST 5:05 PM EST
Nautical Twilight 6:07 AM EST 5:40 PM EST
Astronomical Twilight 5:33 AM EST 6:14 PM EST
Moon 3:12 AM EST (11/29) 2:21 PM EST (11/29)
Length of Visible Light 10h 23m
Length of Day
9h 20m
Waning Crescent, 14% of the Moon is Illuminated
Nov 29
Waning Crescent
Dec 2
New
Dec 9
First Quarter
Dec 17
Full
Dec 25
Last Quarter

Hourly Weather History & Observations

Time (EST) Temp. Windchill Dew Point Humidity Pressure Visibility Wind Dir Wind Speed Gust Speed Precip Events Conditions
12:06 AM 21.2 °F - 19.4 °F 93% 30.40 in 6.0 mi Calm Calm - 0.00 in Snow Light Snow
12:56 AM 21.0 °F - 19.0 °F 92% 30.45 in 4.0 mi Calm Calm - 0.00 in Snow Light Snow
1:03 AM 21.2 °F - 19.4 °F 93% 30.40 in 4.0 mi Calm Calm - 0.00 in Snow Light Snow
1:56 AM 21.0 °F - 19.0 °F 92% 30.46 in 4.0 mi Calm Calm - 0.00 in Snow Light Snow
2:11 AM 21.2 °F - 19.4 °F 93% 30.41 in 2.5 mi Calm Calm - 0.00 in Snow Light Snow
2:31 AM 21.2 °F - 19.4 °F 93% 30.41 in 3.0 mi Calm Calm - 0.00 in Snow Light Snow
2:38 AM 21.2 °F - 19.4 °F 93% 30.41 in 3.0 mi Calm Calm - 0.00 in Snow Light Snow
2:56 AM 20.1 °F - 19.0 °F 96% 30.47 in 3.0 mi Calm Calm - 0.00 in Snow Light Snow
3:56 AM 19.0 °F - 18.1 °F 96% 30.47 in 4.0 mi Calm Calm - 0.00 in Snow Light Snow
4:36 AM 17.6 °F - 15.8 °F 93% 30.42 in 8.0 mi Calm Calm - 0.00 in Snow Light Snow
4:56 AM 17.1 °F - 16.2 °F 96% 30.49 in 4.0 mi Calm Calm - 0.00 in Snow Light Snow
5:35 AM 17.6 °F - 17.6 °F 100% 30.45 in 10.0 mi Calm Calm - 0.00 in Snow Light Snow
5:56 AM 19.0 °F - 17.1 °F 92% 30.51 in 10.0 mi Calm Calm - 0.00 in Snow Light Snow
6:28 AM 19.4 °F - 17.6 °F 93% 30.46 in 5.0 mi Calm Calm - 0.00 in Snow Light Snow
6:56 AM 20.1 °F - 18.1 °F 92% 30.54 in 5.0 mi Calm Calm - 0.00 in Snow Light Snow
7:28 AM 21.2 °F - 19.4 °F 93% 30.49 in 1.8 mi Calm Calm - 0.00 in Snow Light Snow
7:35 AM 21.2 °F - 19.4 °F 93% 30.50 in 0.8 mi Calm Calm - 0.00 in Snow Light Snow
7:56 AM 21.0 °F - 20.1 °F 96% 30.57 in 2.0 mi Calm Calm - 0.00 in Snow Light Snow
8:56 AM 22.1 °F 15.9 °F 19.0 °F 88% 30.61 in 2.0 mi Variable 4.6 mph - 0.00 in Snow Light Snow
9:43 AM 23.0 °F 15.8 °F 17.6 °F 80% 30.56 in 6.0 mi North 5.8 mph - 0.00 in   Haze
9:56 AM 23.0 °F 14.7 °F 17.1 °F 78% 30.63 in 6.0 mi North 6.9 mph - 0.00 in Snow Light Snow Showers
10:56 AM 25.2 °F 16.5 °F 16.2 °F 69% 30.64 in 10.0 mi NNW 8.1 mph - 0.00 in   Scattered Clouds
11:56 AM 24.1 °F 15.2 °F 14.0 °F 65% 30.65 in 10.0 mi NNW 8.1 mph - 0.00 in   Scattered Clouds
12:56 PM 25.2 °F 16.5 °F 12.0 °F 58% 30.66 in 10.0 mi NNW 8.1 mph - N/A   Scattered Clouds
1:56 PM 25.2 °F 15.1 °F 12.0 °F 58% 30.66 in 10.0 mi NNW 10.4 mph - N/A   Mostly Cloudy
2:56 PM 25.2 °F 18.3 °F 13.1 °F 60% 30.67 in 10.0 mi North 5.8 mph - N/A   Mostly Cloudy
3:56 PM 23.0 °F 14.7 °F 13.1 °F 66% 30.70 in 10.0 mi North 6.9 mph - 0.00 in Snow Light Snow
4:56 PM 21.0 °F 16.2 °F 12.0 °F 68% 30.72 in 10.0 mi NNE 3.5 mph - 0.00 in   Mostly Cloudy
5:56 PM 16.2 °F 10.6 °F 11.1 °F 81% 30.74 in 10.0 mi NNE 3.5 mph - N/A   Scattered Clouds
6:56 PM 17.1 °F 8.7 °F 10.0 °F 74% 30.75 in 10.0 mi NNE 5.8 mph - N/A   Clear
7:56 PM 17.1 °F 8.7 °F 10.0 °F 74% 30.76 in 10.0 mi North 5.8 mph - N/A   Clear
8:56 PM 12.0 °F - 9.1 °F 88% 30.77 in 10.0 mi Calm Calm - N/A   Clear
9:56 PM 9.1 °F - 6.1 °F 87% 30.77 in 10.0 mi Calm Calm - N/A   Clear
10:56 PM 9.1 °F 2.6 °F 6.1 °F 87% 30.77 in 10.0 mi East 3.5 mph - N/A   Clear
11:56 PM 7.2 °F -1.5 °F 4.1 °F 87% 30.77 in 10.0 mi East 4.6 mph - N/A   Clear